This demonstration page uses our WeatherBlox Daily Observations layout. Learn more.

Left ArrowRight Arrow

39.51506, -84.39828

Hourly Observations for March 18, 2021

Temp ( °F °C ) Dew Point ( °F °C ) Humidity (%) Winds ( mph kmh ) Pressure ( in mb ) Visibility ( mi km ) Precip ( " mm )
12:15 am 00:15 Cloudy with Light Rain 54 12 N/A N/A N 6 9 29.78 1009 3 5 0.03 0.76
12:35 am 00:35 Cloudy with Light Rain 54 12 N/A N/A NNE 7 11 29.77 1008 3 4 0.09 2.29
12:55 am 00:55 Cloudy with Light Rain 54 12 N/A N/A NE 6 9 29.77 1008 5 8 0.10 2.54
1:15 am 01:15 Cloudy with Haze 54 12 N/A N/A NE 7 11 29.76 1008 7 11 N/A
1:35 am 01:35 Cloudy with Light Rain 54 12 N/A N/A NNE 7 11 29.75 1008 4 6 0.01 0.25
1:55 am 01:55 Cloudy with Light Rain 54 12 N/A N/A NE 6 9 29.74 1007 4 6 0.02 0.51
2:15 am 02:15 Cloudy with Rain 54 12 N/A N/A ENE 7 11 29.73 1007 2 3 0.07 1.78
2:35 am 02:35 Cloudy with Rain 54 12 N/A N/A NE 7 11 29.72 1007 2 3 0.11 2.79
2:55 am 02:55 Cloudy with Light Rain 54 12 N/A N/A ENE 8 13 29.71 1006 3 5 0.13 3.30
3:15 am 03:15 Cloudy with Drizzle 54 12 N/A N/A ENE 8 13 29.70 1006 5 8 N/A
3:35 am 03:35 Cloudy with Light Rain 54 12 N/A N/A ENE 8 13 29.68 1005 4 6 0.02 0.51
3:55 am 03:55 Cloudy with Rain 54 12 N/A N/A ENE 6 9 29.67 1005 3 5 0.05 1.27
4:15 am 04:15 Cloudy with Rain 54 12 N/A N/A ENE 8 13 29.66 1005 4 6 N/A
4:35 am 04:35 Cloudy with Light Rain 54 12 N/A N/A ENE 9 15 29.64 1004 4 6 0.04 1.02
4:55 am 04:55 Cloudy with Light Rain 54 12 N/A N/A ENE 7 11 29.64 1004 3 5 0.05 1.27
5:15 am 05:15 Cloudy with Drizzle 52 11 N/A N/A N 3 6 29.65 1004 7 11 0.01 0.25
5:35 am 05:35 Cloudy with Rain 52 11 N/A N/A ENE 6 9 29.65 1004 4 6 0.04 1.02
5:55 am 05:55 Cloudy with Light Rain 54 12 N/A N/A NE 9 15 29.63 1004 4 6 0.08 2.03
6:15 am 06:15 Cloudy with Rain 52 11 N/A N/A NE 7 11 29.63 1003 4 6 0.05 1.27
6:35 am 06:35 Cloudy with Light Rain 52 11 N/A N/A NE 6 9 29.64 1004 5 8 0.09 2.29
6:55 am 06:55 Cloudy 52 11 N/A N/A NE 8 13 29.62 1003 10 16 0.09 2.29
7:15 am 07:15 Cloudy 52 11 N/A N/A NE 6 9 29.62 1003 10 16 N/A
7:35 am 07:35 Cloudy 52 11 N/A N/A N 6 9 29.62 1003 10 16 N/A
7:55 am 07:55 Cloudy with Haze 52 11 N/A N/A NNE 9 15 29.61 1003 5 8 N/A
8:15 am 08:15 Cloudy with Drizzle 52 11 N/A N/A NNE 10 17 29.62 1003 2 2 0.01 0.25
8:35 am 08:35 Cloudy with Drizzle 52 11 N/A N/A NNE 10 17 29.62 1003 2 3 0.03 0.76
8:55 am 08:55 Cloudy with Light Rain 52 11 N/A N/A NNE 9 15 29.62 1003 1 2 0.05 1.27
9:15 am 09:15 Cloudy with Light Rain 52 11 N/A N/A NNE 10 17 29.62 1003 2 3 0.06 1.52
9:35 am 09:35 Cloudy with Light Rain 52 11 N/A N/A N 10 17 29.63 1003 5 8 0.07 1.78
9:55 am 09:55 Cloudy with Rain 50 10 N/A N/A NNE 16 26 29.62 1003 3 5 0.11 2.79
10:15 am 10:15 Cloudy with Light Rain 50 10 N/A N/A NNE 16 26 29.61 1003 5 8 0.02 0.51
10:35 am 10:35 Cloudy with Light Rain 49 9.6 49 9.6 100 100 NE 10 17 29.64 1004 7 11 0.04 1.02
10:55 am 10:55 Cloudy 49 9.4 49 9.2 99 99 NNE 13 20 29.65 1004 10 16 0.04 1.02
11:15 am 11:15 Cloudy with Light Rain 49 9.4 48 9 97 97 NNE 14 22 29.66 1004 10 16 N/A
11:35 am 11:35 Cloudy with Light Rain 48 8.8 47 8.4 97 97 NNE 18 30 29.66 1004 4 6 0.01 0.25
11:55 am 11:55 undefined N/A N/A N/A undefined N/A N/A N/A N/A
12:15 pm 12:15 undefined N/A N/A N/A undefined N/A N/A N/A N/A
12:35 pm 12:35 undefined N/A N/A N/A undefined N/A N/A N/A N/A
12:55 pm 12:55 undefined N/A N/A N/A undefined N/A N/A N/A N/A
1:15 pm 13:15 undefined N/A N/A N/A undefined N/A N/A N/A N/A
1:35 pm 13:35 undefined N/A N/A N/A undefined N/A N/A N/A N/A
1:55 pm 13:55 undefined N/A N/A N/A undefined N/A N/A N/A N/A
2:15 pm 14:15 undefined N/A N/A N/A undefined N/A N/A N/A N/A
2:35 pm 14:35 undefined N/A N/A N/A undefined N/A N/A N/A N/A
2:55 pm 14:55 undefined N/A N/A N/A undefined N/A N/A N/A N/A
3:15 pm 15:15 undefined N/A N/A N/A undefined N/A N/A N/A N/A
3:35 pm 15:35 undefined N/A N/A N/A undefined N/A N/A N/A N/A
3:55 pm 15:55 undefined N/A N/A N/A undefined N/A N/A N/A N/A
4:15 pm 16:15 undefined N/A N/A N/A undefined N/A N/A N/A N/A
4:35 pm 16:35 undefined N/A N/A N/A undefined N/A N/A N/A N/A
4:55 pm 16:55 undefined N/A N/A N/A undefined N/A N/A N/A N/A
5:15 pm 17:15 undefined N/A N/A N/A undefined N/A N/A N/A N/A
5:35 pm 17:35 undefined N/A N/A N/A undefined N/A N/A N/A N/A
5:55 pm 17:55 undefined N/A N/A N/A undefined N/A N/A N/A N/A
6:15 pm 18:15 undefined N/A N/A N/A undefined N/A N/A N/A N/A
6:35 pm 18:35 undefined N/A N/A N/A undefined N/A N/A N/A N/A
6:55 pm 18:55 undefined N/A N/A N/A undefined N/A N/A N/A N/A
7:15 pm 19:15 undefined N/A N/A N/A undefined N/A N/A N/A N/A
7:35 pm 19:35 undefined N/A N/A N/A undefined N/A N/A N/A N/A
7:55 pm 19:55 undefined N/A N/A N/A undefined N/A N/A N/A N/A
8:15 pm 20:15 undefined N/A N/A N/A undefined N/A N/A N/A N/A
8:35 pm 20:35 undefined N/A N/A N/A undefined N/A N/A N/A N/A
8:55 pm 20:55 undefined N/A N/A N/A undefined N/A N/A N/A N/A
9:15 pm 21:15 undefined N/A N/A N/A undefined N/A N/A N/A N/A
9:35 pm 21:35 undefined N/A N/A N/A undefined N/A N/A N/A N/A
9:55 pm 21:55 undefined N/A N/A N/A undefined N/A N/A N/A N/A
10:15 pm 22:15 undefined N/A N/A N/A undefined N/A N/A N/A N/A
10:35 pm 22:35 undefined N/A N/A N/A undefined N/A N/A N/A N/A
10:55 pm 22:55 undefined N/A N/A N/A undefined N/A N/A N/A N/A
11:15 pm 23:15 undefined N/A N/A N/A undefined N/A N/A N/A N/A
11:35 pm 23:35 undefined N/A N/A N/A undefined N/A N/A N/A N/A
11:55 pm 23:55 undefined N/A N/A N/A undefined N/A N/A N/A N/A

Powered by AerisWeather